Lid_Strength_Index
2 2 2 2 2 3 3 3 3 3 3 4 4 4 4 4 4 4 4 4 4 4 4 4 3 4 5 8 9 -0 -1 -1 -0 1 3 4 5 6 8 7 6 8 7 6 5 6 6
2 2 2 2 2 2 3 3 3 3 3 4 4 4 4 4 4 4 4 4 4 4 4 3 2 3 6 10 2 -1 -0 0 1 1 3 3 4 4 6 7 7 6 6 6 6 6 6
1 2 2 2 2 2 3 2 3 3 3 4 4 4 4 4 4 4 4 4 4 4 4 3 2 3 7 10 -0 -1 -0 1 0 1 3 2 2 4 5 7 5 6 8 7 7 7 7
1 1 2 2 2 2 2 2 2 3 3 3 3 4 4 4 4 4 4 4 4 4 3 2 2 2 10 5 -1 0 0 1 0 1 1 1 2 4 5 5 6 8 8 11 8 7 7
1 1 1 1 1 2 2 2 2 2 2 3 3 4 4 4 4 5 5 5 4 3 2 2 3 4 9 1 2 1 1 2 2 2 1 1 2 5 5 8 9 9 12 12 10 7 7
1 1 1 1 1 1 2 2 2 2 2 2 3 3 4 4 4 5 5 5 2 1 1 0 1 7 6 7 5 1 2 1 3 3 4 4 5 7 7 8 12 11 12 12 11 9 8
1 1 1 1 1 1 1 2 2 2 2 2 3 3 3 4 4 5 4 3 4 5 3 8 8 7 5 3 3 4 2 2 4 5 7 6 8 10 8 7 8 8 9 11 10 8 9
0 1 1 1 1 1 1 2 2 2 2 2 3 3 4 4 4 4 5 4 3 4 6 4 5 5 4 3 5 5 3 5 5 8 6 7 9 7 6 7 8 8 10 10 9 8 9
1 1 1 1 1 1 2 2 2 2 3 2 3 3 4 4 4 5 5 5 3 3 5 6 4 4 4 3 5 4 4 4 6 8 8 9 8 7 7 7 8 9 10 10 10 9 8
1 1 1 1 1 2 2 2 2 2 3 3 3 3 4 5 5 4 4 2 3 3 7 7 5 4 4 4 5 3 2 4 6 8 7 8 6 7 7 8 7 10 7 8 10 11 13
1 1 1 1 1 2 2 2 2 2 3 3 3 4 4 5 4 4 3 3 3 5 12 6 5 3 4 5 4 4 2 4 7 7 7 8 8 9 9 8 7 10 7 9 9 11 11
1 1 1 1 1 2 3 3 3 3 4 5 4 5 6 7 6 5 4 5 5 8 13 7 6 6 6 6 6 4 4 3 4 6 7 7 8 8 7 7 7 7 8 9 9 10 14
1 1 1 1 2 2 3 3 3 4 5 5 6 7 7 6 5 4 5 4 9 11 7 8 8 6 6 7 7 6 6 7 8 10 9 9 8 8 8 8 7 7 9 13 14 14 14
2 2 2 2 2 3 3 3 3 4 5 6 8 8 7 6 5 5 4 6 12 9 8 8 8 7 7 7 7 7 7 8 8 8 9 11 10 9 8 7 9 9 8 10 14 13 13
2 2 2 2 2 3 3 3 3 4 6 7 8 6 5 4 5 5 4 10 10 9 7 8 7 8 8 8 8 8 7 7 6 6 9 11 10 8 8 8 7 8 9 7 12 12 13
2 2 2 2 3 3 3 3 3 5 6 7 4 4 3 4 4 4 6 11 8 6 6 6 8 8 9 9 9 8 8 7 7 6 5 9 10 8 8 8 7 7 6 10 10 15 16
3 3 3 3 3 3 3 3 3 5 6 8 4 4 3 4 4 4 9 8 7 6 5 7 8 9 8 8 9 9 9 7 7 9 8 8 9 8 8 8 8 8 8 9 9 11 12
3 3 3 3 3 3 3 3 4 5 7 7 4 6 3 4 6 7 7 8 9 6 6 6 6 7 8 8 8 8 8 7 6 7 8 8 8 9 9 7 7 8 8 7 9 12 11
3 3 3 3 3 3 3 3 4 5 6 7 5 5 3 4 8 8 6 7 6 7 7 6 7 6 6 8 9 8 7 5 6 7 7 7 9 10 9 8 7 8 8 10 8 9 12
3 3 3 3 3 3 3 3 4 5 5 5 4 7 4 4 5 7 7 7 7 6 8 7 6 6 7 8 7 8 8 6 6 6 4 6 8 9 10 10 8 9 9 8 9 10 11
3 3 3 4 4 3 3 3 3 4 5 4 5 7 6 8 7 8 8 8 8 8 7 7 7 7 7 9 8 8 7 6 6 5 6 7 9 8 9 8 9 8 9 8 9 9 10
4 3 4 4 3 3 4 4 4 4 5 2 6 7 5 6 6 7 8 7 8 7 7 8 7 7 7 8 8 9 8 7 8 6 7 7 8 9 9 9 8 10 9 9 9 9 9
5 4 4 4 4 3 3 4 4 4 4 3 3 3 5 8 7 7 7 7 7 7 6 6 7 6 7 7 6 6 7 7 7 8 7 8 7 9 10 9 8 11 9 9 9 8 9
5 5 4 4 4 4 4 4 4 4 4 4 3 3 6 8 7 7 7 6 7 6 7 6 5 6 5 4 6 7 7 8 8 8 8 8 8 9 9 9 13 8 7 7 8 8 7
6 5 5 5 5 5 4 4 4 4 4 4 2 3 5 8 7 7 7 7 6 6 6 6 5 4 5 5 6 9 8 8 9 9 8 8 8 10 10 10 10 9 8 9 9 9 7
6 6 6 5 5 5 5 4 4 4 5 3 2 2 3 7 7 6 7 6 7 7 6 6 4 4 5 6 7 11 11 10 10 9 8 9 8 8 10 11 13 9 7 6 6 10 6
7 6 6 6 6 5 5 4 3 4 5 5 3 2 3 6 4 5 6 6 5 6 7 6 5 5 5 7 9 10 11 9 11 11 10 9 9 9 10 10 9 7 6 6 11 10 6
6 7 6 6 6 5 5 4 4 4 4 5 4 3 3 5 4 4 4 5 5 5 7 6 6 6 6 9 9 10 10 9 10 9 10 10 11 10 10 11 12 6 6 9 7 6 5
7 6 6 6 6 5 5 5 4 4 4 4 5 3 3 4 5 3 2 1 2 3 4 4 6 6 5 8 8 8 9 8 10 11 7 11 9 9 9 9 6 5 6 4 5 5 5